PIMOHWEATHER Station Historical Data
Daily Summary for June 01, 2020 Units:  Metric    English   Both
Daily Weekly Monthly Yearly
  High: Low: Average:
Temperature: 36.0 °C 27.0 °C 30.8 °C
Dew Point: 28.0 °C 23.0 °C 25.3 °C
Humidity: 82% 61% 74%
Wind Speed: 29km/h 0km/h 6.9km/h
Wind Gust: 32km/h - -
Wind- - SSE
Pressure: 1011.1 hPa 1006.7 hPa -
Precipitation: 0.89 mm    
 
 
Tabular Data for June 01, 2020
Time Temperature Dew Point Pressure Wind Wind Speed Wind Gust Humidity Rainfall Rate (Hourly) solar
00:04 30.0 °C 23.0 °C 1010.0 hPa Calm     67% 0.00 mm 0.00 W/m2
00:09 30.0 °C 23.0 °C 1009.8 hPa Calm     67% 0.00 mm 0.00 W/m2
00:14 30.0 °C 23.0 °C 1009.7 hPa Calm     67% 0.00 mm 0.00 W/m2
00:19 30.0 °C 23.0 °C 1009.6 hPa Calm     67% 0.00 mm 0.00 W/m2
00:24 30.0 °C 23.0 °C 1009.5 hPa Calm     67% 0.00 mm 0.00 W/m2
00:29 30.0 °C 23.0 °C 1009.5 hPa Calm     67% 0.00 mm 0.00 W/m2
00:34 30.0 °C 23.0 °C 1009.5 hPa Calm     67% 0.00 mm 0.00 W/m2
00:39 30.0 °C 23.0 °C 1009.6 hPa Calm     67% 0.00 mm 0.00 W/m2
00:44 30.0 °C 23.0 °C 1009.4 hPa Calm     68% 0.00 mm 0.00 W/m2
00:49 30.0 °C 23.0 °C 1009.3 hPa NNW 4 km/h 8 km/h 69% 0.00 mm 0.00 W/m2
00:54 29.0 °C 23.0 °C 1009.3 hPa North 3 km/h 4 km/h 69% 0.00 mm 0.00 W/m2
00:59 29.0 °C 23.0 °C 1009.3 hPa North 5 km/h 8 km/h 69% 0.00 mm 0.00 W/m2
01:04 29.0 °C 23.0 °C 1009.2 hPa North 3 km/h 4 km/h 69% 0.00 mm 0.00 W/m2
01:09 29.0 °C 23.0 °C 1009.4 hPa North 3 km/h 4 km/h 69% 0.00 mm 0.00 W/m2
01:14 29.0 °C 23.0 °C 1009.4 hPa North 2 km/h 4 km/h 70% 0.00 mm 0.00 W/m2
01:19 29.0 °C 23.0 °C 1009.3 hPa Calm   4 km/h 70% 0.00 mm 0.00 W/m2
01:24 29.0 °C 23.0 °C 1009.4 hPa NNW 5 km/h 8 km/h 71% 0.00 mm 0.00 W/m2
01:29 29.0 °C 23.0 °C 1009.3 hPa North 7 km/h 8 km/h 72% 0.00 mm 0.00 W/m2
01:34 29.0 °C 23.0 °C 1009.4 hPa North 5 km/h 8 km/h 72% 0.00 mm 0.00 W/m2
01:39 29.0 °C 23.0 °C 1009.2 hPa NNW 5 km/h 8 km/h 72% 0.00 mm 0.00 W/m2
01:44 29.0 °C 23.0 °C 1009.2 hPa North 4 km/h 4 km/h 72% 0.00 mm 0.00 W/m2
01:49 29.0 °C 23.0 °C 1009.4 hPa North 5 km/h 8 km/h 72% 0.00 mm 0.00 W/m2
01:54 29.0 °C 23.0 °C 1009.4 hPa North 5 km/h 8 km/h 73% 0.00 mm 0.00 W/m2
01:59 29.0 °C 23.0 °C 1009.2 hPa Calm   4 km/h 73% 0.00 mm 0.00 W/m2
02:04 29.0 °C 23.0 °C 1009.4 hPa NW 6 km/h 8 km/h 73% 0.00 mm 0.00 W/m2
02:09 29.0 °C 23.0 °C 1009.5 hPa NW 5 km/h 8 km/h 73% 0.00 mm 0.00 W/m2
02:14 29.0 °C 24.0 °C 1009.4 hPa Calm     73% 0.00 mm 0.00 W/m2
02:19 29.0 °C 24.0 °C 1009.3 hPa Calm     73% 0.00 mm 0.00 W/m2
02:24 29.0 °C 23.0 °C 1009.3 hPa Calm     73% 0.00 mm 0.00 W/m2
02:29 29.0 °C 23.0 °C 1009.5 hPa Calm     73% 0.00 mm 0.00 W/m2
02:34 29.0 °C 23.0 °C 1009.4 hPa Calm     73% 0.00 mm 0.00 W/m2
02:39 29.0 °C 23.0 °C 1009.2 hPa Calm     73% 0.00 mm 0.00 W/m2
02:44 29.0 °C 23.0 °C 1009.2 hPa Calm     73% 0.00 mm 0.00 W/m2
02:49 29.0 °C 24.0 °C 1009.0 hPa North 1 km/h 4 km/h 74% 0.00 mm 0.00 W/m2
02:54 29.0 °C 24.0 °C 1008.9 hPa Calm     74% 0.00 mm 0.00 W/m2
02:59 29.0 °C 24.0 °C 1009.0 hPa Calm     75% 0.00 mm 0.00 W/m2
03:04 29.0 °C 24.0 °C 1009.0 hPa Calm     75% 0.00 mm 0.00 W/m2
03:09 29.0 °C 24.0 °C 1009.0 hPa Calm     74% 0.00 mm 0.00 W/m2
03:14 29.0 °C 23.0 °C 1009.2 hPa Calm     73% 0.00 mm 0.00 W/m2
03:19 29.0 °C 24.0 °C 1009.2 hPa Calm     74% 0.00 mm 0.00 W/m2
03:24 29.0 °C 24.0 °C 1009.0 hPa Calm     74% 0.00 mm 0.00 W/m2
03:29 29.0 °C 24.0 °C 1008.8 hPa Calm     75% 0.00 mm 0.00 W/m2
03:34 28.0 °C 24.0 °C 1009.0 hPa North 6 km/h 8 km/h 76% 0.00 mm 0.00 W/m2
03:39 28.0 °C 24.0 °C 1009.1 hPa NNE 5 km/h 8 km/h 77% 0.00 mm 0.00 W/m2
03:44 28.0 °C 24.0 °C 1009.4 hPa Calm     77% 0.00 mm 0.00 W/m2
03:49 28.0 °C 24.0 °C 1009.3 hPa North 6 km/h 8 km/h 77% 0.00 mm 0.00 W/m2
03:54 28.0 °C 24.0 °C 1009.4 hPa NE 5 km/h 8 km/h 77% 0.00 mm 0.00 W/m2
03:59 28.0 °C 24.0 °C 1009.3 hPa NNE 4 km/h 4 km/h 78% 0.00 mm 0.00 W/m2
04:04 28.0 °C 24.0 °C 1009.3 hPa NNW 5 km/h 12 km/h 78% 0.00 mm 0.00 W/m2
04:09 28.0 °C 24.0 °C 1009.4 hPa North 10 km/h 12 km/h 79% 0.00 mm 0.00 W/m2
04:14 28.0 °C 24.0 °C 1009.5 hPa North 5 km/h 8 km/h 79% 0.00 mm 0.00 W/m2
04:19 28.0 °C 24.0 °C 1009.3 hPa North 7 km/h 8 km/h 79% 0.00 mm 0.00 W/m2
04:24 28.0 °C 24.0 °C 1009.4 hPa North 7 km/h 8 km/h 79% 0.00 mm 0.00 W/m2
04:29 28.0 °C 24.0 °C 1009.3 hPa NNE 7 km/h 8 km/h 79% 0.00 mm 0.00 W/m2
04:34 28.0 °C 24.0 °C 1009.4 hPa North 7 km/h 8 km/h 80% 0.00 mm 0.00 W/m2
04:39 28.0 °C 24.0 °C 1009.5 hPa NNE 10 km/h 12 km/h 80% 0.00 mm 0.00 W/m2
04:44 28.0 °C 24.0 °C 1009.4 hPa NNE 8 km/h 12 km/h 80% 0.00 mm 0.00 W/m2
04:49 27.0 °C 24.0 °C 1009.4 hPa North 8 km/h 12 km/h 80% 0.00 mm 0.00 W/m2
04:54 28.0 °C 24.0 °C 1009.4 hPa NNE 8 km/h 12 km/h 80% 0.00 mm 0.00 W/m2
04:59 28.0 °C 24.0 °C 1009.4 hPa North 9 km/h 12 km/h 80% 0.00 mm 0.00 W/m2
05:04 27.0 °C 24.0 °C 1009.4 hPa NNE 10 km/h 12 km/h 80% 0.00 mm 0.00 W/m2
05:09 27.0 °C 24.0 °C 1009.4 hPa North 10 km/h 12 km/h 81% 0.00 mm 0.00 W/m2
05:14 27.0 °C 24.0 °C 1009.5 hPa North 8 km/h 12 km/h 81% 0.00 mm 0.00 W/m2
05:19 27.0 °C 24.0 °C 1009.7 hPa North 3 km/h 4 km/h 81% 0.00 mm 0.00 W/m2
05:24 27.0 °C 24.0 °C 1009.7 hPa North 6 km/h 8 km/h 81% 0.00 mm 0.00 W/m2
05:29 27.0 °C 24.0 °C 1009.7 hPa North 6 km/h 8 km/h 80% 0.00 mm 1.97 W/m2
05:34 27.0 °C 24.0 °C 1009.7 hPa NW 8 km/h 8 km/h 81% 0.00 mm 4.49 W/m2
05:39 27.0 °C 24.0 °C 1009.9 hPa NW 6 km/h 8 km/h 81% 0.00 mm 6.24 W/m2
05:44 27.0 °C 24.0 °C 1009.8 hPa North 8 km/h 12 km/h 81% 0.00 mm 10.05 W/m2
05:49 27.0 °C 24.0 °C 1009.9 hPa North 8 km/h 8 km/h 81% 0.00 mm 16.81 W/m2
05:54 27.0 °C 24.0 °C 1010.0 hPa North 5 km/h 8 km/h 81% 0.00 mm 23.23 W/m2
05:59 27.0 °C 24.0 °C 1010.1 hPa West 2 km/h 4 km/h 82% 0.00 mm 27.26 W/m2
06:04 27.0 °C 24.0 °C 1010.1 hPa NNE 9 km/h 12 km/h 81% 0.00 mm 27.32 W/m2
06:09 27.0 °C 24.0 °C 1010.4 hPa North 5 km/h 8 km/h 81% 0.00 mm 36.96 W/m2
06:14 28.0 °C 24.0 °C 1010.4 hPa NNE 5 km/h 8 km/h 81% 0.00 mm 48.52 W/m2
06:19 28.0 °C 24.0 °C 1010.4 hPa North 5 km/h 8 km/h 81% 0.00 mm 66.04 W/m2
06:24 28.0 °C 24.0 °C 1010.5 hPa NNE 5 km/h 8 km/h 81% 0.00 mm 80.03 W/m2
06:29 28.0 °C 24.0 °C 1010.8 hPa NNE 5 km/h 8 km/h 81% 0.00 mm 85.29 W/m2
06:34 28.0 °C 24.0 °C 1010.8 hPa Calm     79% 0.00 mm 104.96 W/m2
06:39 29.0 °C 24.0 °C 1010.6 hPa North 3 km/h 4 km/h 78% 0.00 mm 105.13 W/m2
06:44 28.0 °C 24.0 °C 1010.7 hPa Calm     78% 0.00 mm 88.88 W/m2
06:49 29.0 °C 24.0 °C 1010.8 hPa Calm     78% 0.00 mm 96.49 W/m2
06:54 29.0 °C 24.0 °C 1010.8 hPa Calm     77% 0.00 mm 103.39 W/m2
06:59 29.0 °C 24.0 °C 1010.7 hPa Calm     76% 0.00 mm 206.69 W/m2
07:04 30.0 °C 24.0 °C 1010.7 hPa North 2 km/h 4 km/h 75% 0.00 mm 231.65 W/m2
07:09 30.0 °C 25.0 °C 1010.8 hPa NNE 4 km/h 4 km/h 74% 0.00 mm 297.42 W/m2
07:14 30.0 °C 25.0 °C 1010.6 hPa NNE 5 km/h 8 km/h 73% 0.00 mm 296.73 W/m2
07:19 31.0 °C 25.0 °C 1010.5 hPa Calm     72% 0.00 mm 286.26 W/m2
07:24 31.0 °C 25.0 °C 1010.5 hPa Calm     70% 0.00 mm 268.03 W/m2
07:29 32.0 °C 25.0 °C 1010.5 hPa Calm     69% 0.00 mm 311.51 W/m2
07:34 32.0 °C 25.0 °C 1010.6 hPa SW 3 km/h 4 km/h 68% 0.00 mm 326.98 W/m2
07:39 32.0 °C 25.0 °C 1010.7 hPa South 5 km/h 8 km/h 69% 0.00 mm 279.14 W/m2
07:44 31.0 °C 25.0 °C 1010.6 hPa Calm     69% 0.00 mm 142.91 W/m2
07:49 32.0 °C 25.0 °C 1010.5 hPa SSE 8 km/h 8 km/h 69% 0.00 mm 215.77 W/m2
07:54 31.0 °C 25.0 °C 1010.6 hPa SE 5 km/h 8 km/h 69% 0.00 mm 277.67 W/m2
07:59 31.0 °C 25.0 °C 1010.5 hPa SSE 13 km/h 16 km/h 68% 0.00 mm 178.39 W/m2
08:04 31.0 °C 25.0 °C 1010.8 hPa SE 6 km/h 8 km/h 69% 0.00 mm 162.87 W/m2
08:09 32.0 °C 25.0 °C 1010.8 hPa SE 5 km/h 8 km/h 69% 0.00 mm 381.51 W/m2
08:14 33.0 °C 25.0 °C 1010.9 hPa South 8 km/h 8 km/h 67% 0.00 mm 476.62 W/m2
08:19 33.0 °C 26.0 °C 1010.8 hPa South 10 km/h 12 km/h 68% 0.00 mm 446.06 W/m2
08:24 33.0 °C 26.0 °C 1010.7 hPa South 8 km/h 16 km/h 67% 0.00 mm 330.01 W/m2
08:29 33.0 °C 26.0 °C 1010.9 hPa South 7 km/h 8 km/h 68% 0.00 mm 234.24 W/m2
08:34 32.0 °C 26.0 °C 1010.8 hPa South 9 km/h 12 km/h 69% 0.00 mm 228.20 W/m2
08:39 32.0 °C 25.0 °C 1010.9 hPa South 9 km/h 12 km/h 69% 0.00 mm 226.10 W/m2
08:44 32.0 °C 26.0 °C 1011.0 hPa South 8 km/h 12 km/h 71% 0.00 mm 198.50 W/m2
08:49 32.0 °C 26.0 °C 1011.1 hPa South 4 km/h 8 km/h 71% 0.00 mm 175.18 W/m2
08:54 32.0 °C 26.0 °C 1011.1 hPa SW 6 km/h 8 km/h 72% 0.00 mm 173.25 W/m2
08:59 31.0 °C 26.0 °C 1011.1 hPa South 6 km/h 8 km/h 73% 0.00 mm 190.82 W/m2
09:04 31.0 °C 26.0 °C 1011.0 hPa South 8 km/h 8 km/h 73% 0.00 mm 199.84 W/m2
09:09 31.0 °C 26.0 °C 1011.0 hPa South 6 km/h 8 km/h 74% 0.00 mm 206.89 W/m2
09:14 32.0 °C 26.0 °C 1011.0 hPa SSW 3 km/h 4 km/h 73% 0.00 mm 208.65 W/m2
09:19 32.0 °C 26.0 °C 1011.0 hPa SSE 4 km/h 8 km/h 72% 0.00 mm 207.09 W/m2
09:24 32.0 °C 26.0 °C 1010.9 hPa South 10 km/h 12 km/h 73% 0.00 mm 206.69 W/m2
09:29 32.0 °C 26.0 °C 1011.0 hPa WNW 10 km/h 12 km/h 73% 0.00 mm 217.31 W/m2
09:34 32.0 °C 26.0 °C 1011.0 hPa SW 5 km/h 8 km/h 73% 0.00 mm 217.12 W/m2
09:39 32.0 °C 26.0 °C 1010.7 hPa WNW 11 km/h 16 km/h 74% 0.00 mm 241.88 W/m2
09:44 32.0 °C 26.0 °C 1010.9 hPa WNW 10 km/h 12 km/h 73% 0.00 mm 266.79 W/m2
09:49 32.0 °C 26.0 °C 1010.7 hPa WNW 4 km/h 8 km/h 73% 0.00 mm 305.74 W/m2
09:54 32.0 °C 26.0 °C 1010.8 hPa SSW 5 km/h 8 km/h 71% 0.00 mm 278.16 W/m2
09:59 32.0 °C 26.0 °C 1010.5 hPa East 10 km/h 12 km/h 71% 0.00 mm 283.06 W/m2
10:04 32.0 °C 26.0 °C 1010.5 hPa SSW 6 km/h 8 km/h 72% 0.00 mm 490.83 W/m2
10:09 33.0 °C 26.0 °C 1010.4 hPa WSW 9 km/h 12 km/h 71% 0.00 mm 590.02 W/m2
10:14 33.0 °C 26.0 °C 1010.5 hPa SW 8 km/h 8 km/h 70% 0.00 mm 639.25 W/m2
10:19 33.0 °C 27.0 °C 1010.4 hPa WSW 8 km/h 8 km/h 69% 0.00 mm 360.52 W/m2
10:24 33.0 °C 26.0 °C 1010.3 hPa SW 15 km/h 20 km/h 71% 0.00 mm 290.62 W/m2
10:29 32.0 °C 26.0 °C 1010.2 hPa NW 15 km/h 20 km/h 73% 0.00 mm 273.47 W/m2
10:34 32.0 °C 26.0 °C 1010.2 hPa WSW 6 km/h 8 km/h 72% 0.00 mm 273.42 W/m2
10:39 32.0 °C 26.0 °C 1010.2 hPa SSW 5 km/h 8 km/h 71% 0.00 mm 558.66 W/m2
10:44 33.0 °C 26.0 °C 1010.0 hPa South 5 km/h 8 km/h 70% 0.00 mm 502.72 W/m2
10:49 33.0 °C 26.0 °C 1009.9 hPa SW 9 km/h 12 km/h 69% 0.00 mm 496.63 W/m2
10:54 33.0 °C 27.0 °C 1009.9 hPa NNW 8 km/h 12 km/h 68% 0.00 mm 546.96 W/m2
10:59 34.0 °C 27.0 °C 1009.7 hPa NW 9 km/h 12 km/h 68% 0.00 mm 631.40 W/m2
11:04 34.0 °C 27.0 °C 1009.7 hPa South 8 km/h 12 km/h 67% 0.00 mm 670.25 W/m2
11:09 34.0 °C 27.0 °C 1009.8 hPa SSW 12 km/h 12 km/h 67% 0.00 mm 653.54 W/m2
11:14 33.0 °C 26.0 °C 1009.7 hPa NW 15 km/h 20 km/h 71% 0.00 mm 176.11 W/m2
11:19 32.0 °C 26.0 °C 1009.7 hPa West 6 km/h 8 km/h 71% 0.00 mm 174.74 W/m2
11:24 32.0 °C 26.0 °C 1009.5 hPa NW 10 km/h 12 km/h 71% 0.00 mm 382.22 W/m2
11:29 33.0 °C 26.0 °C 1009.4 hPa SSW 8 km/h 12 km/h 71% 0.00 mm 516.18 W/m2
11:34 33.0 °C 27.0 °C 1009.5 hPa SSW 9 km/h 12 km/h 70% 0.00 mm 553.42 W/m2
11:39 34.0 °C 27.0 °C 1009.5 hPa SSE 9 km/h 12 km/h 69% 0.00 mm 543.00 W/m2
11:44 34.0 °C 27.0 °C 1009.2 hPa South 10 km/h 16 km/h 68% 0.00 mm 568.03 W/m2
11:49 34.0 °C 27.0 °C 1009.3 hPa South 9 km/h 12 km/h 67% 0.00 mm 603.68 W/m2
11:54 35.0 °C 27.0 °C 1009.1 hPa NNW 8 km/h 12 km/h 67% 0.00 mm 611.73 W/m2
11:59 35.0 °C 27.0 °C 1009.1 hPa SW 13 km/h 16 km/h 66% 0.00 mm 607.44 W/m2
12:04 35.0 °C 27.0 °C 1008.9 hPa SSW 5 km/h 8 km/h 65% 0.00 mm 592.62 W/m2
12:09 35.0 °C 27.0 °C 1009.0 hPa West 8 km/h 8 km/h 67% 0.00 mm 621.37 W/m2
12:14 35.0 °C 27.0 °C 1009.0 hPa NW 12 km/h 16 km/h 65% 0.00 mm 620.17 W/m2
12:19 35.0 °C 27.0 °C 1009.0 hPa WNW 13 km/h 16 km/h 67% 0.00 mm 649.75 W/m2
12:24 35.0 °C 27.0 °C 1008.8 hPa WNW 14 km/h 16 km/h 67% 0.00 mm 638.93 W/m2
12:29 35.0 °C 27.0 °C 1008.8 hPa SSW 17 km/h 32 km/h 65% 0.00 mm 621.78 W/m2
12:34 35.0 °C 27.0 °C 1008.9 hPa WNW 13 km/h 16 km/h 68% 0.00 mm 553.10 W/m2
12:39 34.0 °C 27.0 °C 1008.8 hPa WSW 10 km/h 12 km/h 68% 0.00 mm 517.11 W/m2
12:44 34.0 °C 27.0 °C 1008.7 hPa WNW 17 km/h 24 km/h 70% 0.00 mm 178.56 W/m2
12:49 33.0 °C 27.0 °C 1008.7 hPa NNW 8 km/h 12 km/h 71% 0.00 mm 343.88 W/m2
12:54 33.0 °C 27.0 °C 1008.8 hPa SSW 8 km/h 12 km/h 70% 0.00 mm 135.23 W/m2
12:59 33.0 °C 27.0 °C 1008.9 hPa WSW 9 km/h 12 km/h 71% 0.00 mm 111.69 W/m2
13:04 33.0 °C 27.0 °C 1008.8 hPa NW 13 km/h 16 km/h 72% 0.00 mm 109.80 W/m2
13:09 32.0 °C 26.0 °C 1008.7 hPa WNW 9 km/h 12 km/h 72% 0.00 mm 121.13 W/m2
13:14 32.0 °C 27.0 °C 1008.7 hPa West 6 km/h 8 km/h 72% 0.00 mm 159.47 W/m2
13:19 33.0 °C 27.0 °C 1008.4 hPa South 7 km/h 12 km/h 72% 0.00 mm 257.71 W/m2
13:24 33.0 °C 27.0 °C 1008.4 hPa WNW 12 km/h 16 km/h 74% 0.00 mm 283.25 W/m2
13:29 32.0 °C 27.0 °C 1008.2 hPa NW 21 km/h 24 km/h 77% 0.00 mm 288.15 W/m2
13:34 32.0 °C 27.0 °C 1008.3 hPa WNW 14 km/h 16 km/h 77% 0.00 mm 345.77 W/m2
13:39 32.0 °C 27.0 °C 1008.3 hPa NW 19 km/h 20 km/h 77% 0.00 mm 487.09 W/m2
13:44 32.0 °C 27.0 °C 1008.3 hPa NW 14 km/h 16 km/h 76% 0.00 mm 217.22 W/m2
13:49 32.0 °C 27.0 °C 1008.3 hPa West 17 km/h 24 km/h 74% 0.00 mm 228.54 W/m2
13:54 33.0 °C 27.0 °C 1007.8 hPa WNW 12 km/h 16 km/h 74% 0.00 mm 460.00 W/m2
13:59 33.0 °C 27.0 °C 1007.8 hPa NW 15 km/h 20 km/h 73% 0.00 mm 566.90 W/m2
14:04 34.0 °C 28.0 °C 1007.6 hPa NW 14 km/h 16 km/h 72% 0.00 mm 626.67 W/m2
14:09 36.0 °C 28.0 °C 1007.6 hPa WNW 6 km/h 8 km/h 67% 0.00 mm 616.52 W/m2
14:14 36.0 °C 28.0 °C 1007.5 hPa NW 8 km/h 12 km/h 65% 0.00 mm 626.75 W/m2
14:19 35.0 °C 28.0 °C 1007.5 hPa SSE 12 km/h 16 km/h 66% 0.00 mm 628.51 W/m2
14:24 35.0 °C 27.0 °C 1007.5 hPa NW 9 km/h 16 km/h 65% 0.00 mm 623.76 W/m2
14:29 35.0 °C 28.0 °C 1007.3 hPa South 6 km/h 12 km/h 65% 0.00 mm 594.21 W/m2
14:34 35.0 °C 28.0 °C 1007.3 hPa SE 10 km/h 12 km/h 64% 0.00 mm 347.90 W/m2
14:39 35.0 °C 27.0 °C 1007.0 hPa SE 15 km/h 20 km/h 64% 0.00 mm 286.34 W/m2
14:44 35.0 °C 27.0 °C 1007.0 hPa ESE 13 km/h 16 km/h 63% 0.00 mm 166.69 W/m2
14:49 35.0 °C 26.0 °C 1007.2 hPa ESE 15 km/h 20 km/h 62% 0.00 mm 172.17 W/m2
14:54 35.0 °C 26.0 °C 1007.1 hPa SE 9 km/h 12 km/h 61% 0.00 mm 410.53 W/m2
14:59 35.0 °C 26.0 °C 1007.0 hPa SE 21 km/h 24 km/h 62% 0.00 mm 386.21 W/m2
15:04 34.0 °C 26.0 °C 1006.9 hPa SE 15 km/h 20 km/h 63% 0.00 mm 184.50 W/m2
15:09 35.0 °C 26.0 °C 1006.9 hPa East 5 km/h 8 km/h 62% 0.00 mm 285.04 W/m2
15:14 35.0 °C 26.0 °C 1006.8 hPa SE 7 km/h 12 km/h 63% 0.00 mm 337.06 W/m2
15:19 35.0 °C 26.0 °C 1006.8 hPa NNE 8 km/h 12 km/h 64% 0.00 mm 228.59 W/m2
15:24 34.0 °C 26.0 °C 1006.9 hPa NE 12 km/h 16 km/h 65% 0.00 mm 307.74 W/m2
15:29 34.0 °C 26.0 °C 1006.7 hPa NE 9 km/h 12 km/h 65% 0.00 mm 228.94 W/m2
15:34 34.0 °C 26.0 °C 1006.8 hPa NE 4 km/h 8 km/h 64% 0.00 mm 207.01 W/m2
15:39 34.0 °C 26.0 °C 1006.8 hPa NE 6 km/h 8 km/h 64% 0.00 mm 132.97 W/m2
15:44 34.0 °C 26.0 °C 1006.9 hPa NNE 7 km/h 8 km/h 66% 0.00 mm 109.58 W/m2
15:49 34.0 °C 26.0 °C 1007.0 hPa NW 16 km/h 20 km/h 72% 0.00 mm 83.92 W/m2
15:54 32.0 °C 26.0 °C 1006.9 hPa NNE 12 km/h 12 km/h 73% 0.00 mm 125.83 W/m2
15:59 33.0 °C 26.0 °C 1006.8 hPa North 9 km/h 12 km/h 71% 0.00 mm 125.54 W/m2
16:04 33.0 °C 26.0 °C 1006.9 hPa NNE 8 km/h 12 km/h 69% 0.00 mm 106.84 W/m2
16:09 33.0 °C 26.0 °C 1006.9 hPa North 6 km/h 8 km/h 68% 0.00 mm 111.05 W/m2
16:14 33.0 °C 26.0 °C 1006.9 hPa Calm     68% 0.00 mm 168.84 W/m2
16:19 34.0 °C 27.0 °C 1007.1 hPa Calm     67% 0.00 mm 167.23 W/m2
16:24 34.0 °C 27.0 °C 1007.0 hPa Calm     66% 0.00 mm 164.81 W/m2
16:29 34.0 °C 27.0 °C 1007.1 hPa North 4 km/h 4 km/h 67% 0.00 mm 135.79 W/m2
16:34 34.0 °C 26.0 °C 1007.3 hPa North 6 km/h 8 km/h 67% 0.00 mm 92.07 W/m2
16:39 33.0 °C 26.0 °C 1007.2 hPa North 5 km/h 8 km/h 67% 0.00 mm 66.25 W/m2
16:44 33.0 °C 27.0 °C 1007.3 hPa NW 18 km/h 20 km/h 73% 0.00 mm 52.64 W/m2
16:49 32.0 °C 27.0 °C 1007.3 hPa NNW 12 km/h 16 km/h 74% 0.00 mm 46.57 W/m2
16:54 32.0 °C 26.0 °C 1007.3 hPa NW 9 km/h 12 km/h 74% 0.00 mm 46.59 W/m2
16:59 32.0 °C 26.0 °C 1007.5 hPa WSW 5 km/h 8 km/h 74% 0.00 mm 44.73 W/m2
17:04 32.0 °C 26.0 °C 1007.5 hPa Calm     73% 0.00 mm 31.00 W/m2
17:09 32.0 °C 26.0 °C 1007.6 hPa Calm   4 km/h 73% 0.00 mm 26.47 W/m2
17:14 32.0 °C 26.0 °C 1007.5 hPa Calm     72% 0.00 mm 24.17 W/m2
17:19 32.0 °C 26.0 °C 1007.8 hPa East 15 km/h 24 km/h 72% 0.00 mm 16.63 W/m2
17:24 31.0 °C 25.0 °C 1007.8 hPa ESE 23 km/h 28 km/h 79% 0.00 mm 12.65 W/m2
17:29 29.0 °C 25.0 °C 1007.9 hPa ESE 29 km/h 32 km/h 80% 1.80 mm 14.09 W/m2
17:34 28.0 °C 24.0 °C 1007.9 hPa SE 26 km/h 28 km/h 80% 5.41 mm 20.84 W/m2
17:39 28.0 °C 24.0 °C 1007.7 hPa SE 17 km/h 24 km/h 79% 5.41 mm 23.14 W/m2
17:44 28.0 °C 24.0 °C 1007.7 hPa SSE 13 km/h 16 km/h 78% 3.61 mm 23.23 W/m2
17:49 29.0 °C 25.0 °C 1007.6 hPa SSE 12 km/h 12 km/h 76% 0.00 mm 21.92 W/m2
17:54 29.0 °C 25.0 °C 1007.6 hPa SSE 5 km/h 8 km/h 77% 0.00 mm 17.45 W/m2
17:59 29.0 °C 25.0 °C 1007.8 hPa SSE 5 km/h 8 km/h 78% 0.00 mm 14.06 W/m2
18:04 29.0 °C 25.0 °C 1007.8 hPa SE 7 km/h 12 km/h 77% 0.00 mm 17.07 W/m2
18:09 30.0 °C 25.0 °C 1007.8 hPa SE 6 km/h 8 km/h 78% 0.00 mm 14.00 W/m2
18:14 30.0 °C 25.0 °C 1007.8 hPa SE 8 km/h 8 km/h 77% 0.00 mm 9.17 W/m2
18:19 30.0 °C 26.0 °C 1007.8 hPa SE 4 km/h 4 km/h 78% 0.00 mm 4.53 W/m2
18:24 30.0 °C 26.0 °C 1007.8 hPa ESE 1 km/h 4 km/h 78% 0.00 mm 0.91 W/m2
18:29 30.0 °C 26.0 °C 1007.7 hPa SE 5 km/h 8 km/h 78% 0.00 mm 0.00 W/m2
18:34 30.0 °C 26.0 °C 1007.8 hPa SE 6 km/h 8 km/h 78% 0.00 mm 0.00 W/m2
18:39 30.0 °C 26.0 °C 1007.9 hPa ESE 6 km/h 8 km/h 78% 0.00 mm 0.00 W/m2
18:44 30.0 °C 26.0 °C 1007.9 hPa ESE 8 km/h 8 km/h 78% 0.00 mm 0.00 W/m2
18:49 30.0 °C 26.0 °C 1007.9 hPa ESE 5 km/h 12 km/h 78% 0.00 mm 0.00 W/m2
18:54 30.0 °C 26.0 °C 1007.9 hPa ESE 6 km/h 8 km/h 78% 0.00 mm 0.00 W/m2
18:59 30.0 °C 26.0 °C 1008.2 hPa SE 8 km/h 12 km/h 78% 0.00 mm 0.00 W/m2
19:04 30.0 °C 26.0 °C 1008.3 hPa SE 12 km/h 12 km/h 78% 0.00 mm 0.00 W/m2
19:09 30.0 °C 26.0 °C 1008.4 hPa SE 9 km/h 12 km/h 78% 0.00 mm 0.00 W/m2
19:14 30.0 °C 26.0 °C 1008.5 hPa ESE 10 km/h 12 km/h 77% 0.00 mm 0.00 W/m2
19:19 30.0 °C 26.0 °C 1008.6 hPa SE 8 km/h 12 km/h 76% 0.00 mm 0.00 W/m2
19:24 30.0 °C 26.0 °C 1008.7 hPa SE 8 km/h 8 km/h 76% 0.00 mm 0.00 W/m2
19:29 30.0 °C 26.0 °C 1009.0 hPa ESE 7 km/h 8 km/h 76% 0.00 mm 0.00 W/m2
19:34 30.0 °C 26.0 °C 1009.0 hPa ESE 13 km/h 16 km/h 75% 0.00 mm 0.00 W/m2
19:39 30.0 °C 25.0 °C 1008.9 hPa ESE 10 km/h 12 km/h 75% 0.00 mm 0.00 W/m2
19:44 30.0 °C 25.0 °C 1008.9 hPa East 9 km/h 12 km/h 75% 0.00 mm 0.00 W/m2
19:49 30.0 °C 26.0 °C 1008.9 hPa ESE 5 km/h 8 km/h 75% 0.00 mm 0.00 W/m2
19:54 30.0 °C 25.0 °C 1008.9 hPa ESE 7 km/h 12 km/h 75% 0.00 mm 0.00 W/m2
19:59 30.0 °C 26.0 °C 1009.2 hPa ESE 8 km/h 8 km/h 76% 0.00 mm 0.00 W/m2
20:04 30.0 °C 26.0 °C 1009.0 hPa ESE 8 km/h 12 km/h 76% 0.00 mm 0.00 W/m2
20:09 30.0 °C 26.0 °C 1009.1 hPa ESE 6 km/h 16 km/h 76% 0.00 mm 0.00 W/m2
20:14 30.0 °C 26.0 °C 1009.1 hPa ESE 10 km/h 16 km/h 76% 0.00 mm 0.00 W/m2
20:19 30.0 °C 26.0 °C 1009.1 hPa ESE 12 km/h 16 km/h 77% 0.00 mm 0.00 W/m2
20:24 30.0 °C 26.0 °C 1009.1 hPa ESE 12 km/h 16 km/h 77% 0.00 mm 0.00 W/m2
20:29 30.0 °C 26.0 °C 1009.2 hPa ESE 10 km/h 20 km/h 77% 0.00 mm 0.00 W/m2
20:34 30.0 °C 26.0 °C 1009.2 hPa ESE 11 km/h 16 km/h 77% 0.00 mm 0.00 W/m2
20:39 30.0 °C 26.0 °C 1009.2 hPa ESE 10 km/h 16 km/h 78% 0.00 mm 0.00 W/m2
20:44 30.0 °C 26.0 °C 1009.2 hPa ESE 6 km/h 8 km/h 78% 0.00 mm 0.00 W/m2
20:49 30.0 °C 26.0 °C 1009.3 hPa SE 7 km/h 8 km/h 78% 0.00 mm 0.00 W/m2
20:54 30.0 °C 26.0 °C 1009.2 hPa SE 7 km/h 8 km/h 78% 0.00 mm 0.00 W/m2
20:59 30.0 °C 26.0 °C 1009.3 hPa ESE 6 km/h 8 km/h 79% 0.00 mm 0.00 W/m2
21:04 30.0 °C 26.0 °C 1009.4 hPa SE 12 km/h 16 km/h 79% 0.00 mm 0.00 W/m2
21:09 30.0 °C 26.0 °C 1009.4 hPa ESE 12 km/h 16 km/h 78% 0.00 mm 0.00 W/m2
21:14 30.0 °C 26.0 °C 1009.4 hPa ESE 12 km/h 16 km/h 79% 0.00 mm 0.00 W/m2
21:19 30.0 °C 26.0 °C 1009.4 hPa ESE 14 km/h 16 km/h 79% 0.00 mm 0.00 W/m2
21:24 30.0 °C 26.0 °C 1009.4 hPa ESE 10 km/h 16 km/h 79% 0.00 mm 0.00 W/m2
21:29 30.0 °C 26.0 °C 1009.5 hPa SE 10 km/h 16 km/h 79% 0.00 mm 0.00 W/m2
21:34 30.0 °C 26.0 °C 1009.4 hPa ESE 10 km/h 16 km/h 79% 0.00 mm 0.00 W/m2
21:39 30.0 °C 26.0 °C 1009.4 hPa SE 13 km/h 16 km/h 79% 0.00 mm 0.00 W/m2
21:44 30.0 °C 26.0 °C 1009.4 hPa ESE 8 km/h 12 km/h 79% 0.00 mm 0.00 W/m2
21:49 30.0 °C 26.0 °C 1009.7 hPa ESE 8 km/h 8 km/h 79% 0.00 mm 0.00 W/m2
21:54 30.0 °C 26.0 °C 1009.8 hPa ESE 10 km/h 12 km/h 79% 0.00 mm 0.00 W/m2
21:59 30.0 °C 26.0 °C 1009.9 hPa SE 9 km/h 12 km/h 79% 0.00 mm 0.00 W/m2
22:04 30.0 °C 26.0 °C 1009.9 hPa ESE 8 km/h 12 km/h 79% 0.00 mm 0.00 W/m2
22:09 30.0 °C 26.0 °C 1010.0 hPa ESE 8 km/h 12 km/h 79% 0.00 mm 0.00 W/m2
22:14 30.0 °C 26.0 °C 1009.9 hPa ESE 9 km/h 12 km/h 79% 0.00 mm 0.00 W/m2
22:19 30.0 °C 26.0 °C 1010.1 hPa ESE 8 km/h 12 km/h 78% 0.00 mm 0.00 W/m2
22:24 30.0 °C 26.0 °C 1010.1 hPa ESE 9 km/h 12 km/h 78% 0.00 mm 0.00 W/m2
22:29 30.0 °C 26.0 °C 1010.1 hPa SE 6 km/h 8 km/h 78% 0.00 mm 0.00 W/m2
22:34 30.0 °C 26.0 °C 1010.3 hPa ESE 2 km/h 4 km/h 78% 0.00 mm 0.00 W/m2
22:39 30.0 °C 26.0 °C 1010.3 hPa SE 5 km/h 8 km/h 78% 0.00 mm 0.00 W/m2
22:44 30.0 °C 25.0 °C 1010.0 hPa ESE 3 km/h 4 km/h 78% 0.00 mm 0.00 W/m2
22:49 30.0 °C 26.0 °C 1010.1 hPa SE 4 km/h 8 km/h 78% 0.00 mm 0.00 W/m2
22:54 30.0 °C 26.0 °C 1010.1 hPa East 1 km/h 4 km/h 78% 0.00 mm 0.00 W/m2
22:59 30.0 °C 25.0 °C 1010.2 hPa ESE 2 km/h 4 km/h 78% 0.00 mm 0.00 W/m2
23:04 30.0 °C 25.0 °C 1010.1 hPa ESE 5 km/h 8 km/h 78% 0.00 mm 0.00 W/m2
23:09 30.0 °C 25.0 °C 1010.2 hPa ENE 1 km/h 4 km/h 78% 0.00 mm 0.00 W/m2
23:14 30.0 °C 25.0 °C 1010.0 hPa East 6 km/h 8 km/h 78% 0.00 mm 0.00 W/m2
23:19 30.0 °C 25.0 °C 1010.0 hPa Calm     78% 0.00 mm 0.00 W/m2
23:24 30.0 °C 25.0 °C 1010.1 hPa NNE 1 km/h 4 km/h 78% 0.00 mm 0.00 W/m2
23:29 30.0 °C 26.0 °C 1009.9 hPa Calm   4 km/h 79% 0.00 mm 0.00 W/m2
23:34 30.0 °C 26.0 °C 1009.9 hPa East 5 km/h 8 km/h 79% 0.00 mm 0.00 W/m2
23:39 30.0 °C 26.0 °C 1009.9 hPa ENE 3 km/h 4 km/h 79% 0.00 mm 0.00 W/m2
23:44 29.0 °C 25.0 °C 1009.9 hPa Calm   4 km/h 79% 0.00 mm 0.00 W/m2
23:49 29.0 °C 26.0 °C 1009.8 hPa Calm     80% 0.00 mm 0.00 W/m2
23:54 29.0 °C 26.0 °C 1009.8 hPa East 4 km/h 8 km/h 80% 0.00 mm 0.00 W/m2
23:59 29.0 °C 26.0 °C 1009.7 hPa ESE 1 km/h 4 km/h 80% 0.00 mm 0.00 W/m2
PIMOHWEATHER Philippines
Compliments of Weather Underground - 2 mb